Total_Precipitation_Accumulation
0.13 0.17 0.19 0.22 0.23 0.21 0.27 0.33 0.34 0.33 0.26 0.18 0.20 0.31 0.29 0.35 0.33 0.25 0.10 0.01 0.03 0.04 0.03 0.00 0.02 0.04 0.09 0.23 0.10 0.08 0.27 0.21 0.02 0.02 0.02 0.00 0.00 0.00 0.00 0.00 0.00 0.00 0.00 0.01 0.01
0.14 0.18 0.21 0.27 0.29 0.33 0.41 0.39 0.36 0.29 0.24 0.16 0.17 0.36 0.44 0.33 0.23 0.24 0.07 0.04 0.09 0.16 0.04 0.00 0.02 0.05 0.08 0.19 0.17 0.28 0.22 0.08 0.01 0.00 0.02 0.01 0.00 0.00 0.00 0.00 0.01 0.02 0.01 0.00 0.02
0.15 0.17 0.23 0.39 0.44 0.45 0.37 0.29 0.28 0.30 0.20 0.19 0.24 0.36 0.51 0.43 0.32 0.05 0.03 0.02 0.14 0.21 0.10 0.00 0.02 0.09 0.05 0.09 0.09 0.09 0.06 0.00 0.01 0.06 0.15 0.03 0.01 0.00 0.00 0.00 0.00 0.03 0.01 0.04 0.09
0.18 0.21 0.32 0.45 0.38 0.33 0.29 0.31 0.27 0.32 0.29 0.25 0.29 0.48 0.44 0.52 0.27 0.11 0.07 0.09 0.16 0.37 0.24 0.04 0.02 0.08 0.02 0.02 0.01 0.01 0.00 0.00 0.03 0.14 0.10 0.04 0.03 0.00 0.00 0.00 0.00 0.02 0.05 0.03 0.02
0.27 0.37 0.43 0.38 0.33 0.28 0.23 0.21 0.22 0.25 0.28 0.32 0.30 0.68 0.57 0.49 0.14 0.16 0.19 0.23 0.54 0.86 0.23 0.05 0.01 0.04 0.01 0.00 0.02 0.02 0.00 0.01 0.05 0.07 0.07 0.11 0.09 0.01 0.00 0.00 0.00 0.01 0.03 0.02 0.00
0.39 0.41 0.35 0.34 0.33 0.24 0.22 0.22 0.23 0.29 0.19 0.19 0.47 0.51 0.43 0.30 0.04 0.10 0.25 0.41 0.55 0.88 0.34 0.06 0.00 0.02 0.01 0.01 0.01 0.01 0.01 0.02 0.05 0.03 0.05 0.11 0.07 0.12 0.00 0.00 0.00 0.01 0.01 0.01 0.01
0.38 0.33 0.36 0.36 0.25 0.18 0.18 0.18 0.17 0.26 0.19 0.21 0.36 0.51 0.22 0.11 0.07 0.15 0.23 0.54 0.59 0.79 0.43 0.13 0.02 0.04 0.01 0.03 0.00 0.01 0.03 0.04 0.02 0.03 0.03 0.03 0.13 0.18 0.01 0.00 0.00 0.03 0.02 0.00 0.00
0.32 0.30 0.33 0.29 0.21 0.17 0.17 0.15 0.11 0.16 0.26 0.24 0.44 0.45 0.13 0.02 0.08 0.12 0.16 0.53 0.61 0.92 0.76 0.33 0.09 0.04 0.02 0.02 0.03 0.02 0.02 0.01 0.00 0.01 0.01 0.02 0.03 0.02 0.01 0.00 0.00 0.00 0.00 0.00 0.00
0.31 0.29 0.26 0.19 0.16 0.19 0.23 0.27 0.24 0.23 0.30 0.45 0.49 0.39 0.14 0.03 0.04 0.13 0.14 0.51 0.62 1.07 1.39 0.66 0.28 0.07 0.04 0.03 0.07 0.04 0.00 0.00 0.00 0.00 0.00 0.00 0.00 0.01 0.00 0.00 0.00 0.00 0.00 0.00 0.00
0.25 0.19 0.19 0.13 0.14 0.29 0.40 0.50 0.55 0.44 0.49 0.56 0.57 0.56 0.14 0.04 0.06 0.19 0.21 0.55 0.78 1.31 1.89 1.22 0.67 0.18 0.05 0.03 0.03 0.00 0.00 0.00 0.00 0.00 0.00 0.00 0.00 0.01 0.01 0.00 0.00 0.00 0.00 0.00 0.00
0.18 0.17 0.18 0.17 0.25 0.51 0.66 0.87 1.07 0.85 0.67 0.47 0.32 0.23 0.15 0.22 0.19 0.19 0.36 0.93 1.31 1.69 1.63 0.99 0.46 0.15 0.01 0.00 0.00 0.00 0.00 0.00 0.00 0.00 0.00 0.00 0.00 0.00 0.01 0.00 0.00 0.00 0.00 0.00 0.00
0.18 0.26 0.37 0.31 0.35 0.54 0.78 0.75 0.64 0.54 0.41 0.31 0.19 0.15 0.08 0.20 0.32 0.31 0.66 1.81 1.44 1.44 1.17 0.98 0.27 0.05 0.02 0.00 0.00 0.00 0.00 0.00 0.00 0.00 0.00 0.00 0.00 0.00 0.00 0.00 0.00 0.00 0.00 0.00 0.00
0.33 0.41 0.36 0.36 0.29 0.53 0.55 0.49 0.53 0.58 0.54 0.60 0.41 0.19 0.29 0.55 0.53 0.51 1.28 1.79 1.03 1.00 0.82 0.60 0.15 0.05 0.08 0.01 0.00 0.00 0.00 0.00 0.00 0.00 0.00 0.00 0.00 0.00 0.00 0.00 0.00 0.00 0.00 0.00 0.00
0.41 0.40 0.34 0.37 0.36 0.54 0.46 0.45 0.74 0.97 1.12 1.01 0.74 0.55 0.60 0.79 0.71 0.61 1.27 1.39 1.03 0.96 1.22 0.84 0.22 0.08 0.07 0.08 0.00 0.00 0.00 0.00 0.00 0.00 0.00 0.00 0.00 0.00 0.00 0.00 0.00 0.00 0.00 0.00 0.00
0.29 0.24 0.30 0.56 0.75 0.68 0.48 0.51 0.85 1.38 1.56 1.01 0.89 0.77 0.84 0.64 0.47 0.62 1.14 0.95 0.46 0.81 1.00 0.76 0.33 0.15 0.12 0.05 0.02 0.00 0.00 0.00 0.00 0.01 0.01 0.00 0.01 0.00 0.00 0.00 0.00 0.00 0.00 0.00 0.00
0.22 0.23 0.38 0.45 0.81 0.59 0.44 0.95 1.03 1.42 1.59 1.58 1.30 0.94 0.70 0.40 0.31 0.47 0.85 0.61 0.48 0.62 0.53 0.37 0.31 0.28 0.21 0.04 0.03 0.00 0.00 0.00 0.00 0.02 0.04 0.00 0.00 0.00 0.00 0.00 0.00 0.00 0.00 0.00 0.00
0.19 0.21 0.46 0.43 0.44 0.38 0.78 1.41 1.33 1.01 1.01 0.85 0.74 0.39 0.30 0.31 0.26 0.33 0.66 0.53 0.55 0.71 0.76 0.57 0.40 0.24 0.20 0.04 0.05 0.00 0.04 0.08 0.08 0.10 0.02 0.00 0.00 0.00 0.00 0.00 0.00 0.00 0.00 0.00 0.00
0.45 0.36 0.29 0.25 0.27 0.73 1.28 1.06 1.10 0.66 0.75 0.36 0.29 0.34 0.31 0.20 0.29 0.27 0.34 0.30 0.17 0.13 0.32 0.42 0.56 0.34 0.30 0.04 0.03 0.00 0.02 0.06 0.02 0.00 0.00 0.00 0.00 0.00 0.00 0.00 0.00 0.00 0.00 0.00 0.00
0.49 0.18 0.21 0.13 0.26 0.98 1.09 0.95 0.89 0.86 0.54 0.16 0.17 0.31 0.32 0.14 0.16 0.20 0.22 0.17 0.11 0.08 0.15 0.11 0.14 0.18 0.19 0.05 0.04 0.09 0.11 0.04 0.15 0.10 0.12 0.02 0.00 0.00 0.00 0.00 0.00 0.00 0.00 0.00 0.00
0.45 0.20 0.30 0.20 0.36 0.93 0.78 0.82 0.54 0.43 0.08 0.00 0.09 0.06 0.09 0.07 0.07 0.06 0.12 0.06 0.02 0.02 0.01 0.00 0.04 0.11 0.14 0.11 0.05 0.01 0.03 0.11 0.24 0.15 0.06 0.00 0.00 0.00 0.00 0.00 0.00 0.00 0.00 0.00 0.00
0.45 0.23 0.35 0.31 0.59 0.95 0.72 0.70 0.40 0.15 0.03 0.00 0.00 0.00 0.00 0.02 0.00 0.00 0.00 0.01 0.01 0.01 0.00 0.00 0.02 0.08 0.17 0.20 0.07 0.02 0.09 0.12 0.17 0.14 0.08 0.03 0.00 0.00 0.00 0.00 0.00 0.00 0.00 0.00 0.00
0.59 0.47 0.21 0.32 0.65 0.77 0.66 0.56 0.45 0.16 0.02 0.00 0.00 0.00 0.00 0.00 0.00 0.00 0.00 0.00 0.00 0.00 0.00 0.00 0.04 0.05 0.07 0.02 0.00 0.01 0.00 0.04 0.22 0.08 0.13 0.06 0.03 0.00 0.00 0.00 0.00 0.00 0.00 0.00 0.00
0.48 0.46 0.27 0.26 0.30 0.28 0.38 0.31 0.13 0.08 0.04 0.00 0.00 0.00 0.00 0.00 0.00 0.00 0.00 0.00 0.00 0.00 0.00 0.00 0.04 0.07 0.09 0.10 0.05 0.06 0.02 0.10 0.21 0.39 0.24 0.12 0.03 0.00 0.00 0.00 0.00 0.00 0.00 0.00 0.00
0.69 0.72 0.54 0.31 0.15 0.08 0.28 0.21 0.12 0.09 0.02 0.00 0.00 0.00 0.00 0.00 0.00 0.00 0.00 0.00 0.00 0.00 0.00 0.01 0.03 0.02 0.04 0.07 0.19 0.18 0.03 0.10 0.42 0.55 0.09 0.04 0.00 0.00 0.00 0.00 0.01 0.01 0.01 0.01 0.00
0.52 0.20 0.14 0.16 0.10 0.10 0.15 0.17 0.11 0.04 0.01 0.00 0.01 0.00 0.00 0.01 0.00 0.00 0.00 0.00 0.00 0.00 0.00 0.04 0.05 0.02 0.02 0.06 0.22 0.20 0.08 0.07 0.32 0.16 0.23 0.06 0.00 0.00 0.00 0.00 0.01 0.01 0.00 0.00 0.01
0.36 0.09 0.01 0.01 0.05 0.05 0.04 0.08 0.04 0.00 0.00 0.00 0.00 0.00 0.01 0.01 0.00 0.00 0.00 0.00 0.00 0.00 0.01 0.05 0.09 0.06 0.06 0.05 0.10 0.16 0.04 0.06 0.05 0.02 0.02 0.00 0.00 0.01 0.00 0.01 0.06 0.03 0.01 0.01 0.00
0.33 0.11 0.03 0.05 0.04 0.01 0.01 0.00 0.01 0.00 0.00 0.01 0.01 0.02 0.02 0.01 0.00 0.00 0.00 0.00 0.00 0.00 0.02 0.06 0.08 0.15 0.07 0.04 0.11 0.13 0.04 0.02 0.01 0.00 0.01 0.01 0.01 0.01 0.07 0.18 0.16 0.03 0.01 0.00 0.00